[Iaude] MPEC L75: 2024 LM1 [a=1.20,e=0.14,i=12.9,H=25.6]
    mpec at cfa.harvard.edu 
    mpec at cfa.harvard.edu
       
    Thu Jun  6 18:51:42 EDT 2024
    
    
  
M.P.E.C. 2024-L75                                  Issued 2024 June 6, 22:50 UT
     The Minor Planet Electronic Circulars contain information on unusual
         minor planets, routine data on comets and natural satellites,
         and occasional editorial announcements.  They are published
    on behalf of Division F of the International Astronomical Union by the
          Minor Planet Center, Smithsonian Astrophysical Observatory,
                          Cambridge, MA 02138, U.S.A.
			  
             Prepared using the Tamkin Foundation Computer Network
                              MPC at CFA.HARVARD.EDU
            URL https://www.minorplanetcenter.net/    ISSN 1523-6714
                                    2024 LM1                                    
Observations:
     K24L01M  C2024 05 30.27214413 05 16.074-33 06 31.07         20.21GVEL075F51
     K24L01M  C2024 05 30.28119613 05 19.391-33 04 35.34         20.53GVEL075F51
     K24L01M  C2024 05 30.29027613 05 22.697-33 02 38.09         21.31GVEL075F51
     K24L01M*1C2024 06 06.26198914 01 12.742-00 12 03.82         20.52GVEL075G96
     K24L01M 1C2024 06 06.26721514 01 14.977-00 10 23.95         20.23GVEL075G96
     K24L01M 1C2024 06 06.27242814 01 17.278-00 08 43.15         20.08GVEL075G96
     K24L01M  C2024 06 06.28837714 01 23.789-00 03 40.83         20.0 GVEL075H01
     K24L01M  C2024 06 06.29260214 01 25.670-00 02 19.83         20.9 GVEL075H01
     K24L01M  C2024 06 06.30248814 01 30.098+00 00 50.59         20.1 GVEL075H01
     K24L01M  C2024 06 06.30949714 01 33.248+00 03 05.43         20.2 GVEL075H01
     K24L01M KC2024 06 06.33509714 01 45.156+00 11 23.21         20.22GVEL075I52
     K24L01M KC2024 06 06.33634114 01 45.714+00 11 47.11         20.44GVEL075I52
     K24L01M KC2024 06 06.33757414 01 46.297+00 12 10.48         19.81GVEL075I52
     K24L01M KC2024 06 06.33882314 01 46.880+00 12 34.70         20.23GVEL075I52
     K24L01M KC2024 06 06.38539214 02 21.542+00 31 57.68         20.3 GVEL075474
     K24L01M KC2024 06 06.38694314 02 22.190+00 32 27.31         20.2 GVEL075474
     K24L01M KC2024 06 06.38849314 02 22.886+00 32 56.87         20.5 GVEL075474
     K24L01M KC2024 06 06.39004514 02 23.554+00 33 27.32         20.1 GVEL075474
     K24L01M KC2024 06 06.39159714 02 24.262+00 33 56.81         20.4 GVEL075474
     K24L01M KB2024 06 06.87611414 06 22.210+03 03 36.79         19.9 GXEL075M45
     K24L01M KB2024 06 06.87776514 06 22.885+03 04 08.15         19.9 GXEL075M45
     K24L01M KB2024 06 06.87941914 06 23.689+03 04 39.64         19.7 GXEL075M45
Observer details:
474 Mount John Observatory, Lake Tekapo.  Observers A. C. Gilmore, P. M.
    Kilmartin.  Measurer P. M. Kilmartin.  1.0-m f/7.7 Reflector + CCD.
F51 Pan-STARRS 1, Haleakala.  Observers J. Herman, T. Lowe, P. Minguez, A.
    Schultz, I. Smith.  Measurers K. Chambers, T. de Boer, J. Fairlamb, H.
    Gao, M. Huber, C.-C. Lin, E. Magnier, Y. Ramanjooloo, R. Wainscoat, R.
    Weryk.  1.8-m Ritchey-Chretien + CCD.
G96 Mt. Lemmon Survey.  Observer G. J. Leonard.  Measurers T. Beuden, V. F.
    Carvajal, D. Fay, J. B. Fazekas, D. C. Fuls, A. R. Gibbs, A. D. Grauer, H.
    Groeller, J. K. Hogan, R. A. Kowalski, S. M. Larson, G. J. Leonard, D.
    Rankin, R. L. Seaman, F. C. Shelly, K. W. Wierzchos.  1.5-m reflector +
    10K CCD.
H01 Magdalena Ridge Observatory, Socorro.  Observers W. H. Ryan, E. V. Ryan.
    Measurer W. H. Ryan.  2.4-m f/8.9 Ritchey-Chretien + CCD.
I52 Steward Observatory, Mt. Lemmon Station.  Observer D. Rankin.  Measurers
    T. Beuden, V. F. Carvajal, D. Fay, J. B. Fazekas, D. C. Fuls, A. R. Gibbs,
    A. D. Grauer, H. Groeller, J. K. Hogan, R. A. Kowalski, S. M. Larson, G.
    J. Leonard, D. Rankin, R. L. Seaman, F. C. Shelly, K. W. Wierzchos.  1.0-m
    prime focus + CCD.
M45 Starhopper Observatory, Sfantu Gheorghe.  Observer F. Ursache.  0.41-m
    f/7.5 reflector + CMO.
Orbital elements:
2024 LM1                                                 Earth MOID = 0.0284 AU
Epoch 2024 Mar. 31.0 TT = JDT 2460400.5                 MPC                     
M 295.13902              (2000.0)            P               Q                  
n   0.74630812     Peri.   21.52745     +0.05592384     +0.97572010             
a   1.2037157      Node   252.18077     -0.94544708     -0.01642468             
e   0.1404566      Incl.   12.85192     -0.32093979     +0.21840446             
P   1.32           H   25.61          G   0.15           U   7                  
Residuals in seconds of arc
240530 F51  0.0   0.3+    240606 H01  0.1+  0.1-    240606 474  0.0   0.4-
240530 F51  0.1+  0.2-    240606 H01  0.1+  0.2-    240606 474  0.1-  0.2+
240530 F51  0.1-  0.0     240606 I52  0.2-  0.1+    240606 474  0.4+  0.1-
240606 G96  0.2+  0.5+    240606 I52  0.3-  0.1+    240606 M45  0.3+  0.3+
240606 G96  0.3-  0.3-    240606 I52  0.0   0.3-    240606 M45  0.6-  0.1+
240606 G96  0.2+  0.1+    240606 I52  0.2+  0.1-    240606 M45  0.4+  0.1+
240606 H01  0.0   0.2+    240606 474  0.1+  0.1+
240606 H01  0.0   0.2-    240606 474  0.3-  0.1-
Ephemeris:
2024 LM1                 a,e,i = 1.20, 0.14, 13                  q = 1.0346
Date    TT    R. A. (2000) Decl.     Delta      r    Elong.  Phase     V
2024 05 07    11 21 06.7 -63 53 58   0.1276  1.0795   120.5    53.6    23.3
...
2024 05 22    12 11 24.3 -52 32 38   0.07321 1.0574   126.5    50.3    21.9
...
2024 05 30    13 03 12.2 -34 01 56   0.04939 1.0484   133.6    44.5    20.9
...
2024 06 05    13 50 48.0 -06 54 49   0.04054 1.0430   133.6    44.8    20.5
2024 06 06    13 59 06.9 -01 34 28   0.04034 1.0422   132.0    46.3    20.5
2024 06 07    14 07 28.3 +03 45 08   0.04055 1.0415   130.1    48.2    20.5
...
2024 06 13    14 56 58.6 +30 27 18   0.04931 1.0378   115.5    62.0    21.4
...
2024 06 21    15 55 36.5 +48 17 42   0.07228 1.0350   103.1    73.0    22.5
...
2024 07 06    17 12 40.3 +58 21 05   0.1227  1.0365    95.9    77.4    23.8
A. U. Tomatic                (C) Copyright 2024 MPC           M.P.E.C. 2024-L75
    
    
More information about the Iaude
mailing list